Regional Weather Roundup
Issued by NWS

Home | Current Version | Previous Version | Graphics & Text | Print | Product List | Glossary On
Versions: 1 2 3 4 5 6 7 8 9 10 11 12 13 14 15 16 17 18 19 20 21 22 23 24 25 26 27
000
ASUS45 KSLC 270410
RWRUT

UTAH REGIONAL WEATHER ROUNDUP
NATIONAL WEATHER SERVICE SALT LAKE CITY UT
900 PM MST SUN FEB 26 2017

UTZ001>011-023>025-270500-

NORTHERN UTAH

CITY           SKY/WX    TMP DP  RH WIND       PRES   REMARKS
BRIGHAM CITY     N/A     38  21  50 W5        29.67F WCI  35
HILL AFB       MOCLDY    34  20  56 S12       29.66F WCI  26
LOGAN          CLOUDY    32  23  69 NW7       29.67F WCI  26
OGDEN          MOCLDY    35  21  56 S10       29.65F WCI  27
SALT LAKE CITY MOCLDY    38  19  46 S10       29.67F WCI  31
TOOELE VALLEY    N/A     34  25  69 S7        29.67S WCI  28
WENDOVER       CLOUDY    36  23  60 CALM      29.63F
HEBER CITY     CLOUDY    34  16  47 S9        29.67F WCI  26
WEST JORDAN    CLOUDY    38  28  68 SW10      29.68F WCI  31

$$

UTZ011>015-024>027-270500-

CENTRAL/NORTHEAST UTAH

CITY           SKY/WX    TMP DP  RH WIND       PRES   REMARKS
PROVO AIRPORT  MOCLDY    32  23  69 SW7       29.70F WCI  26
MOAB/CANYONLAN MOCLDY    39  14  36 SW8       29.77F WCI  33
DELTA            N/A     37  21  52 S18       29.70S WCI  27
PRICE          CLOUDY    31  18  58 CALM      29.75F
ROOSEVELT      MOCLDY    27  19  74 NW6       29.81F WCI  20
VERNAL         CLOUDY    21  14  74 CALM      29.79F

$$

UTZ013>016-019>022-027-270500-

SOUTHERN UTAH

CITY           SKY/WX    TMP DP  RH WIND       PRES   REMARKS
BRYCE CANYON   MOCLDY    21  13  71 S7        29.79S WCI  12
CEDAR CITY       N/A     36  20  52 S18       29.75S WCI  26
MILFORD          N/A     37  20  50 S20       29.74R WCI  27
ST GEORGE        N/A     45  25  45 S5        29.82R
HANKSVILLE       N/A     37  14  38 S5        29.79S WCI  34
BLANDING         N/A     31  14  48 E6        29.91S WCI  25

$$

REGIONAL REPORTS     COLORADO/ARIZONA

CITY           SKY/WX    TMP DP  RH WIND       PRES   REMARKS
CRAIG, CO      MOCLDY    17   6  62 SE5       29.80S WCI  10
GRAND JUNCTION CLOUDY    34  10  37 E8        29.81F WCI  27
RIFLE, CO        N/A     27  12  53 SE6       29.83S WCI  20
MONTROSE, CO   MOCLDY    31  10  41 S7        29.87S WCI  24
CORTEZ, CO       N/A     26  17  68 CALM      29.88S
COLORADO CITY    N/A     37  27  65 W5        29.85S WCI  34
PAGE, AZ         N/A     45  17  32 SW5       29.79S
GRAND CANYON     N/A     31  24  75 S10       29.86S WCI  22
KINGMAN, AZ      N/A     42  19  39 S12       29.86S
FLAGSTAFF, AZ  CLOUDY    32  24  72 SW14      29.89S WCI  22

$$

REGIONAL REPORTS    NEVADA/IDAHO/WYOMING

CITY           SKY/WX    TMP DP  RH WIND       PRES   REMARKS
LAS VEGAS, NV    N/A     53  29  39 S7        29.78S
ELY, NY        CLOUDY    31  20  63 S14       29.65F WCI  21
ELKO, NV       CLOUDY    34  15  46 CALM      29.62S
POCATELLO, ID  CLOUDY    30  22  72 S18G28    29.67S WCI  18
BURLEY, ID     LGT SNOW  32  24  72 NW12G23   29.66R WCI  23
FORT BRIDGER,  MOCLDY    14   5  67 SE5       29.70S WCI   7
EVANSTON, WY   CLOUDY    20   9  62 SW5       29.65F WCI  13
ROCK SPRINGS,    N/A     15  -3  44 E5        29.71F WCI   8

$$




USA.gov is the U.S. government's official web portal to all federal, state and local government web resources and services.